CW8386 Weather Reports


Display with metric or nautical units.
time (UTC)temp
F
wind
direction
speed
MPH
gust
MPH
rain 1hr
in
rain 24hr
in
rain mn
in
humidity
%
barometer
mb
20260831225537 85 360 0.0 9.0 0.00 0.00 0.00 22 1015.1
20260831225119 85 360 3.0 9.0 0.00 0.00 0.00 21 1015.2
20260831224115 85 360 1.0 10.0 0.00 0.00 0.00 21 1015.4
20260831223554 85 360 0.0 11.0 0.00 0.00 0.00 21 1015.3
20260831223034 85 360 6.0 11.0 0.00 0.00 0.00 21 1015.4
20260831222557 85 360 3.0 9.0 0.00 0.00 0.00 21 1015.5
20260831222118 85 360 1.0 8.0 0.00 0.00 0.00 21 1015.5
20260831221537 85 360 2.0 9.0 0.00 0.00 0.00 21 1015.5
20260831221039 85 360 1.0 10.0 0.00 0.00 0.00 22 1015.5
20260831220538 85 360 3.0 10.0 0.00 0.00 0.00 21 1015.7
20260831220039 85 360 1.0 9.0 0.00 0.00 0.00 21 1015.8
20260831215540 84 360 0.0 11.0 0.00 0.00 0.00 21 1015.8
20260831215041 85 360 4.0 11.0 0.00 0.00 0.00 21 1016.0
20260831214542 84 360 0.0 11.0 0.00 0.00 0.00 21 1016.1
20260831214125 84 360 0.0 4.0 0.00 0.00 0.00 21 1016.1
20260831213625 84 360 2.0 10.0 0.00 0.00 0.00 20 1016.1
20260831213103 84 360 5.0 10.0 0.00 0.00 0.00 22 1016.1
20260831212523 85 360 3.0 10.0 0.00 0.00 0.00 22 1016.2
20260831212025 84 360 4.0 10.0 0.00 0.00 0.00 21 1016.3
20260831211607 84 360 0.0 10.0 0.00 0.00 0.00 21 1016.5
20260831211046 84 360 3.0 12.0 0.00 0.00 0.00 23 1016.6
20260831210525 84 360 6.0 13.0 0.00 0.00 0.00 22 1016.6
20260831210025 84 360 2.0 20.0 0.00 0.00 0.00 22 1016.8
20260831205527 84 360 10.0 20.0 0.00 0.00 0.00 22 1016.9
20260831205028 84 360 0.0 16.0 0.00 0.00 0.00 21 1016.9
20260831204533 84 360 5.0 19.0 0.00 0.00 0.00 21 1017.0
20260831203529 83 360 10.0 23.0 0.00 0.00 0.00 22 1017.0
20260831203050 83 360 11.0 23.0 0.00 0.00 0.00 22 1017.1
20260831202550 83 360 7.0 15.0 0.00 0.00 0.00 22 1017.1
20260831202111 82 360 0.0 11.0 0.00 0.00 0.00 21 1017.1
20260831201611 82 360 0.0 12.0 0.00 0.00 0.00 20 1017.2
20260831201052 83 360 5.0 16.0 0.00 0.00 0.00 21 1017.3
20260831200051 83 360 5.0 13.0 0.00 0.00 0.00 21 1017.3
20260831195552 82 360 4.0 12.0 0.00 0.00 0.00 21 1017.4
20260831195114 82 360 5.0 7.0 0.00 0.00 0.00 21 1017.3
20260831194532 81 360 3.0 7.0 0.00 0.00 0.00 21 1017.6
20260831194054 81 360 2.0 10.0 0.00 0.00 0.00 21 1017.7
20260831193533 81 360 2.0 10.0 0.00 0.00 0.00 21 1017.8
20260831193034 81 360 0.0 6.0 0.00 0.00 0.00 21 1017.8
20260831192535 80 360 3.0 6.0 0.00 0.00 0.00 21 1017.9
20260831192057 80 360 0.0 5.0 0.00 0.00 0.00 21 1018.0
20260831191556 80 360 0.0 5.0 0.00 0.00 0.00 21 1018.1
20260831191115 80 360 0.0 6.0 0.00 0.00 0.00 21 1018.2
20260831190554 79 360 2.0 6.0 0.00 0.00 0.00 21 1018.3
20260831190115 80 360 2.0 6.0 0.00 0.00 0.00 22 1018.3
20260831185534 80 360 0.0 1.0 0.00 0.00 0.00 21 1018.4
20260831185055 79 360 0.0 1.0 0.00 0.00 0.00 21 1018.4
20260831184535 79 360 0.0 0.0 0.00 0.00 0.00 21 1018.5
20260831184118 78 360 0.0 0.0 0.00 0.00 0.00 21 1018.7
20260831183536 77 360 0.0 4.0 0.00 0.00 0.00 21 1018.8
20260831183058 77 360 0.0 5.0 0.00 0.00 0.00 21 1018.9
20260831182558 77 360 2.0 5.0 0.00 0.00 0.00 22 1019.0
20260831182038 77 360 1.0 5.0 0.00 0.00 0.00 22 1019.1
20260831181523 76 360 0.0 6.0 0.00 0.00 0.00 23 1019.2
20260831181024 76 360 1.0 5.0 0.00 0.00 0.00 23 1018.5
20260831180526 75 360 0.0 6.0 0.00 0.00 0.00 22 1018.5
20260831180047 76 360 1.0 6.0 0.00 0.00 0.00 21 1018.6
20260831175528 75 360 1.0 5.0 0.00 0.00 0.00 22 1018.6
20260831175029 75 360 0.0 0.0 0.00 0.00 0.00 22 1018.6
20260831174529 75 360 0.0 0.0 0.00 0.00 0.00 23 1018.7
20260831174033 75 360 0.0 0.0 0.00 0.00 0.00 22 1018.7
20260831173532 75 360 0.0 1.0 0.00 0.00 0.00 22 1018.7
20260831173053 74 360 0.0 1.0 0.00 0.00 0.00 23 1018.7
20260831172534 74 360 0.0 0.0 0.00 0.00 0.00 24 1018.7
20260831171536 74 360 0.0 0.0 0.00 0.00 0.00 23 1018.8
20260831171038 74 360 0.0 0.0 0.00 0.00 0.00 24 1018.9
20260831170619 73 360 0.0 0.0 0.00 0.00 0.00 24 1019.0
20260831170038 74 360 0.0 0.0 0.00 0.00 0.00 24 1019.1
20260831165540 75 360 0.0 0.0 0.00 0.00 0.00 25 1019.0
20260831165104 74 360 0.0 0.0 0.00 0.00 0.00 25 1019.1
20260831164523 73 360 0.0 0.0 0.00 0.00 0.00 26 1019.1
20260831164029 72 360 0.0 0.0 0.00 0.00 0.00 27 1019.2
20260831163550 71 360 0.0 0.0 0.00 0.00 0.00 27 1019.2
20260831163051 70 360 0.0 0.0 0.00 0.00 0.00 27 1019.2
20260831162530 70 360 0.0 0.0 0.00 0.00 0.00 27 1019.2
20260831162031 69 360 0.0 0.0 0.00 0.00 0.00 29 1019.2
20260831161614 68 360 0.0 0.0 0.00 0.00 0.00 28 1019.2
20260831161035 68 360 0.0 0.0 0.00 0.00 0.00 29 1020.1
20260831160536 68 360 0.0 0.0 0.00 0.00 0.00 30 1019.9
20260831160119 67 360 0.0 0.0 0.00 0.00 0.00 32 1019.9
20260831155538 66 360 0.0 0.0 0.00 0.00 0.00 31 1019.9
20260831155059 66 360 0.0 0.0 0.00 0.00 0.00 32 1019.9
20260831154538 66 360 0.0 0.0 0.00 0.00 0.00 32 1019.9
20260831154100 64 360 0.0 0.0 0.00 0.00 0.00 33 1019.9
20260831153600 64 360 0.0 0.0 0.00 0.00 0.00 33 1020.1
20260831153101 63 360 0.0 0.0 0.00 0.00 0.00 34 1020.1
20260831152622 63 360 0.0 0.0 0.00 0.00 0.00 34 1020.2
20260831152122 62 360 0.0 1.0 0.00 0.00 0.00 35 1020.1
20260831151541 61 360 0.0 1.0 0.00 0.00 0.00 37 1020.1
20260831151103 60 360 0.0 0.0 0.00 0.00 0.00 37 1020.2
20260831150542 60 360 0.0 0.0 0.00 0.00 0.00 39 1020.3
20260831150023 59 360 0.0 0.0 0.00 0.00 0.00 40 1020.3
20260831145545 59 360 0.0 0.0 0.00 0.00 0.00 41 1020.2
20260831145105 58 360 0.0 0.0 0.00 0.00 0.00 42 1020.1
20260831144525 57 360 0.0 0.0 0.00 0.00 0.00 43 1020.2
20260831144048 57 360 0.0 0.0 0.00 0.00 0.00 43 1020.2
20260831143047 56 360 0.0 0.0 0.00 0.00 0.00 43 1020.1
20260831142527 55 360 0.0 0.0 0.00 0.00 0.00 45 1020.0
20260831142051 54 360 0.0 0.0 0.00 0.00 0.00 45 1020.0
20260831141531 54 360 0.0 0.0 0.00 0.00 0.00 46 1019.9
20260831141053 54 360 0.0 0.0 0.00 0.00 0.00 46 1019.8
20260831140533 54 360 0.0 0.0 0.00 0.00 0.00 46 1019.7
20260831140033 53 360 0.0 0.0 0.00 0.00 0.00 47 1019.7
20260831135033 50 360 0.0 0.0 0.00 0.00 0.00 52 1019.7
20260831134535 49 360 0.0 0.0 0.00 0.00 0.00 53 1019.6
20260831134038 48 360 0.0 0.0 0.00 0.00 0.00 52 1019.5
20260831133618 47 360 0.0 0.0 0.00 0.00 0.00 53 1019.5
20260831133038 46 360 0.0 0.0 0.00 0.00 0.00 56 1019.4
20260831132539 44 360 0.0 0.0 0.00 0.00 0.00 57 1019.4
20260831132040 44 360 0.0 1.0 0.00 0.00 0.00 58 1019.3
20260831131622 43 360 0.0 4.0 0.00 0.00 0.00 58 1019.2
20260831131103 42 360 2.0 4.0 0.00 0.00 0.00 60 1019.1
20260831130622 42 360 0.0 0.0 0.00 0.00 0.00 60 1019.1
20260831130023 42 360 0.0 3.0 0.00 0.00 0.00 59 1019.0
20260831125604 43 360 2.0 3.0 0.00 0.00 0.00 58 1018.9
20260831125044 43 360 0.0 0.0 0.00 0.00 0.00 59 1019.0
20260831124605 44 360 0.0 0.0 0.00 0.00 0.00 58 1018.9
20260831124024 44 360 0.0 0.0 0.00 0.00 0.00 59 1018.7
20260831123524 43 360 0.0 3.0 0.00 0.00 0.00 59 1018.8
20260831123046 43 360 0.0 5.0 0.00 0.00 0.00 57 1018.6
20260831122024 43 360 2.0 6.0 0.00 0.00 0.00 59 1018.6
20260831121047 43 360 1.0 2.0 0.00 0.00 0.00 57 1018.4
20260831115524 44 360 0.0 0.0 0.00 0.00 0.00 55 1018.4
20260831115045 44 360 0.0 0.0 0.00 0.00 0.00 55 1018.4
20260831114546 44 360 0.0 2.0 0.00 0.00 0.00 54 1018.1
20260831114026 44 360 1.0 2.0 0.00 0.00 0.00 54 1018.0
20260831113526 44 360 0.0 5.0 0.00 0.00 0.00 55 1017.9
20260831113048 43 360 2.0 6.0 0.00 0.00 0.00 56 1017.7
20260831112528 43 360 4.0 6.0 0.00 0.00 0.00 57 1017.7
20260831112110 42 360 2.0 7.0 0.00 0.00 0.00 58 1017.6
20260831111549 42 360 0.0 8.0 0.00 0.00 0.00 58 1017.6
20260831111050 42 360 6.0 8.0 0.00 0.00 0.00 57 1018.4
20260831110529 43 360 0.0 5.0 0.00 0.00 0.00 56 1018.3
20260831110030 43 360 2.0 5.0 0.00 0.00 0.00 55 1018.2
20260831105551 43 360 0.0 1.0 0.00 0.00 0.00 54 1018.2
20260831105031 44 360 0.0 0.0 0.00 0.00 0.00 54 1018.2
20260831104552 45 360 0.0 0.0 0.00 0.00 0.00 52 1018.1
20260831104054 45 360 0.0 0.0 0.00 0.00 0.00 52 1018.1
20260831103553 45 360 0.0 0.0 0.00 0.00 0.00 51 1018.1
20260831103033 45 360 0.0 0.0 0.00 0.00 0.00 52 1017.9
20260831102535 46 360 0.0 0.0 0.00 0.00 0.00 52 1017.9
20260831102040 46 360 0.0 0.0 0.00 0.00 0.00 52 1017.7
20260831101541 47 360 0.0 1.0 0.00 0.00 0.00 52 1017.7
20260831100557 48 360 1.0 4.0 0.00 0.00 0.00 51 1017.6
20260831100057 49 360 2.0 4.0 0.00 0.01 0.00 49 1017.4
20260831095056 48 360 0.0 0.0 0.00 0.01 0.00 47 1017.1
20260831094536 48 360 0.0 0.0 0.00 0.01 0.00 48 1016.9
20260831094039 48 360 0.0 0.0 0.00 0.01 0.00 49 1016.9
20260831093523 48 360 0.0 2.0 0.00 0.01 0.00 48 1016.9
20260831093045 48 360 0.0 5.0 0.00 0.01 0.00 49 1016.8
20260831092547 48 360 2.0 5.0 0.00 0.01 0.00 48 1016.8
20260831092047 48 360 2.0 6.0 0.00 0.01 0.00 48 1016.8
20260831091547 48 360 1.0 6.0 0.00 0.01 0.00 49 1016.7
20260831090603 47 360 1.0 4.0 0.00 0.01 0.00 49 1016.6
20260831090027 47 360 3.0 4.0 0.00 0.01 0.00 50 1016.5
20260831085550 47 360 0.0 6.0 0.00 0.01 0.00 50 1016.5
20260831085049 47 360 1.0 7.0 0.00 0.01 0.00 49 1016.5
20260831084550 48 360 6.0 7.0 0.00 0.01 0.00 49 1016.3
20260831084032 48 360 0.0 2.0 0.00 0.01 0.00 48 1016.4
20260831083614 48 360 0.0 2.0 0.00 0.01 0.00 48 1016.3
20260831083053 48 360 0.0 6.0 0.00 0.01 0.00 47 1016.3
20260831082555 49 360 2.0 6.0 0.00 0.01 0.00 47 1016.2
20260831082036 49 360 1.0 7.0 0.00 0.01 0.00 46 1016.3
20260831081617 50 360 4.0 7.0 0.00 0.01 0.00 45 1016.2
20260831081058 51 360 0.0 3.0 0.00 0.01 0.00 44 1016.1
20260831080557 51 360 0.0 0.0 0.00 0.01 0.00 44 1016.2
20260831080038 52 360 0.0 0.0 0.00 0.01 0.00 43 1016.2
20260831075601 52 360 0.0 3.0 0.00 0.01 0.00 43 1016.1
20260831075039 51 360 1.0 3.0 0.00 0.01 0.00 43 1016.1
20260831074601 50 360 0.0 4.0 0.00 0.01 0.00 44 1016.1
20260831074103 49 360 1.0 4.0 0.00 0.01 0.00 45 1016.2
20260831073603 49 360 3.0 4.0 0.00 0.01 0.00 46 1016.1
20260831073103 50 360 2.0 4.0 0.00 0.01 0.00 45 1016.1
20260831072525 51 360 1.0 2.0 0.00 0.01 0.00 44 1016.3
20260831072106 52 360 0.0 3.0 0.00 0.01 0.00 43 1016.3
20260831071606 53 360 0.0 6.0 0.00 0.01 0.00 42 1016.2
20260831071107 52 360 1.0 6.0 0.00 0.01 0.00 41 1016.2
20260831070606 52 360 0.0 3.0 0.00 0.01 0.00 43 1016.2
20260831070025 52 360 0.0 5.0 0.00 0.01 0.00 43 1016.2
20260831065547 52 360 0.0 7.0 0.00 0.01 0.00 42 1016.2
20260831065028 52 360 6.0 7.0 0.00 0.01 0.00 42 1016.2
20260831064550 53 360 0.0 3.0 0.00 0.01 0.00 42 1016.2
20260831064053 53 360 1.0 3.0 0.00 0.01 0.00 42 1016.2
20260831063612 54 360 0.0 5.0 0.00 0.01 0.00 41 1016.2
20260831063032 54 360 3.0 5.0 0.00 0.01 0.00 40 1016.1
20260831062614 54 360 0.0 4.0 0.00 0.01 0.00 40 1016.1
20260831062033 54 360 0.0 0.0 0.00 0.01 0.00 41 1016.2
20260831061535 55 360 0.0 2.0 0.00 0.01 0.00 40 1016.3
20260831061118 55 360 0.0 3.0 0.00 0.01 0.00 40 1016.2
20260831060556 56 360 0.0 7.0 0.00 0.01 0.01 39 1016.3
20260831055536 57 360 0.0 6.0 0.00 0.01 0.01 38 1016.1
20260831055118 58 360 1.0 7.0 0.00 0.01 0.01 37 1016.2
20260831054538 58 360 3.0 7.0 0.00 0.01 0.01 36 1016.2
20260831054040 60 360 2.0 5.0 0.00 0.01 0.01 35 1016.1
20260831053601 61 360 0.0 5.0 0.00 0.01 0.01 34 1016.1
20260831053102 61 360 1.0 5.0 0.00 0.01 0.01 33 1016.0
20260831052541 62 360 0.0 10.0 0.00 0.01 0.01 32 1016.0
20260831052044 62 360 0.0 10.0 0.00 0.01 0.01 32 1016.9
20260831051544 63 360 8.0 12.0 0.00 0.01 0.01 32 1016.8
20260831051025 62 360 10.0 12.0 0.00 0.01 0.01 32 1016.7
20260831050525 62 360 4.0 10.0 0.00 0.01 0.01 33 1016.7
20260831050026 63 360 4.0 10.0 0.00 0.01 0.01 32 1016.6
20260831045608 63 360 6.0 8.0 0.00 0.01 0.01 33 1016.6
20260831045027 63 360 5.0 9.0 0.00 0.01 0.01 32 1016.6
20260831044609 63 360 7.0 9.0 0.00 0.01 0.01 32 1016.6
20260831044029 63 360 4.0 9.0 0.00 0.01 0.01 32 1016.6
20260831043550 63 360 0.0 3.0 0.00 0.01 0.01 32 1016.5
20260831043051 63 360 0.0 7.0 0.00 0.01 0.01 33 1016.4
20260831042550 63 360 4.0 8.0 0.00 0.01 0.01 32 1016.4
20260831042050 62 360 5.0 8.0 0.00 0.01 0.01 33 1016.4
20260831041612 62 360 4.0 7.0 0.00 0.01 0.01 33 1016.2
20260831041049 63 360 4.0 6.0 0.00 0.01 0.01 33 1016.2
20260831040528 63 360 4.0 7.0 0.00 0.01 0.01 33 1016.1
20260831040029 64 360 5.0 9.0 0.00 0.01 0.01 32 1016.1
20260831035530 64 360 6.0 8.0 0.00 0.01 0.01 31 1016.1
20260831035051 65 360 3.0 5.0 0.00 0.01 0.01 31 1016.0
20260831034052 65 360 2.0 7.0 0.00 0.01 0.01 31 1015.9
20260831033531 65 360 3.0 7.0 0.00 0.01 0.01 31 1015.8
20260831033033 64 360 3.0 9.0 0.00 0.01 0.01 31 1015.7
20260831032533 64 360 7.0 10.0 0.00 0.01 0.01 31 1015.5
20260831032055 64 360 8.0 11.0 0.00 0.01 0.01 31 1015.4
20260831031556 65 360 9.0 11.0 0.00 0.01 0.01 30 1015.3
20260831031056 66 360 4.0 6.0 0.00 0.01 0.01 29 1015.3
20260831030556 66 360 2.0 5.0 0.00 0.01 0.01 30 1015.3
20260831030037 67 360 3.0 4.0 0.00 0.01 0.01 29 1015.2
20260831025558 69 360 2.0 4.0 0.00 0.01 0.01 28 1015.1
20260831025038 70 360 1.0 6.0 0.00 0.01 0.01 27 1015.0
20260831024523 70 360 3.0 6.0 0.00 0.01 0.01 26 1014.9
20260831024025 71 360 1.0 6.0 0.00 0.01 0.01 26 1014.8
20260831023546 71 360 4.0 10.0 0.00 0.01 0.01 25 1014.8
20260831022525 72 360 6.0 10.0 0.00 0.01 0.01 26 1014.5
20260831022047 73 360 6.0 12.0 0.00 0.01 0.01 26 1014.4
20260831021608 74 360 7.0 18.0 0.00 0.01 0.01 25 1014.3
20260831021049 74 360 13.0 18.0 0.00 0.01 0.01 24 1014.3
20260831020605 75 360 13.0 24.0 0.00 0.01 0.01 24 1014.3
20260831020030 75 360 17.0 24.0 0.00 0.01 0.01 24 1014.2
20260831015609 75 360 9.0 19.0 0.00 0.01 0.01 24 1014.2
20260831015049 75 360 13.0 19.0 0.00 0.01 0.01 24 1014.1
20260831014549 75 360 11.0 17.0 0.00 0.01 0.01 23 1014.0
20260831014111 76 360 8.0 14.0 0.00 0.01 0.01 23 1014.0
20260831013549 77 360 8.0 14.0 0.00 0.01 0.01 22 1013.9
20260831013109 77 360 5.0 16.0 0.00 0.01 0.01 22 1013.9
20260831012528 78 360 6.0 16.0 0.00 0.01 0.01 22 1013.8
20260831012030 78 360 5.0 18.0 0.00 0.01 0.01 23 1013.8
20260831011553 79 360 8.0 18.0 0.00 0.01 0.01 22 1013.8
20260831011037 79 360 12.0 19.0 0.00 0.01 0.01 22 1013.7
20260831010557 79 360 14.0 23.0 0.00 0.01 0.01 21 1013.7
20260831010037 79 360 12.0 23.0 0.00 0.01 0.01 21 1013.7
20260831005539 80 360 13.0 22.0 0.00 0.01 0.01 21 1013.7
20260831005039 80 360 12.0 23.0 0.00 0.01 0.01 21 1013.5
20260831004540 80 360 13.0 24.0 0.00 0.01 0.01 22 1013.6
20260831004043 80 360 13.0 27.0 0.00 0.01 0.01 21 1013.6
20260831003544 81 360 17.0 29.0 0.00 0.01 0.01 20 1013.5
20260831003023 81 360 20.0 29.0 0.00 0.01 0.01 20 1013.6
20260831002525 81 360 13.0 25.0 0.00 0.01 0.01 20 1013.7
20260831001605 81 360 15.0 31.0 0.00 0.01 0.01 21 1013.7
20260831001026 81 360 18.0 31.0 0.00 0.01 0.01 22 1012.8
20260831000526 81 360 16.0 29.0 0.00 0.01 0.01 23 1012.8
20260831000027 81 360 16.0 28.0 0.00 0.01 0.01 23 1012.8
20260830235530 82 360 18.0 27.0 0.00 0.01 0.01 22 1012.8
20260830235031 82 360 15.0 23.0 0.00 0.01 0.01 22 1012.7
20260830234531 81 360 15.0 31.0 0.00 0.01 0.01 23 1012.8
20260830234034 81 360 15.0 31.0 0.00 0.01 0.01 23 1012.8
20260830233538 82 360 17.0 29.0 0.00 0.01 0.01 23 1012.7
20260830232554 81 360 21.0 32.0 0.00 0.01 0.01 23 1012.7
20260830232034 81 360 14.0 33.0 0.00 0.01 0.01 23 1012.7
20260830231538 82 360 16.0 33.0 0.00 0.01 0.01 23 1012.7
20260830231101 82 360 19.0 29.0 0.00 0.01 0.01 22 1012.7
20260830230618 82 360 17.0 30.0 0.00 0.01 0.01 23 1012.7
20260830230040 81 360 19.0 33.0 0.00 0.01 0.01 23 1012.7